Theta_e
320 322 320 319 318 321 322 323 323 323 327 336 337 339 356 354 354 355 355 354 354 352 349 349 348 347 348 349 350 351 351 352 352 352 353 352 354 353 351 351 350 350 351 350
318 321 321 321 320 320 321 321 322 321 323 327 333 337 354 354 354 354 355 355 354 353 351 349 349 348 347 349 351 351 351 352 351 352 352 352 353 352 351 349 352 351 350 351
320 319 319 322 322 321 320 320 322 322 323 328 339 342 343 355 353 352 351 351 352 351 352 351 348 348 347 349 352 352 352 352 351 351 351 352 351 350 350 350 349 352 351 352
318 319 321 321 322 321 320 320 322 322 324 324 337 342 342 344 355 352 351 351 350 349 348 348 348 346 347 348 351 352 353 352 352 351 350 351 351 350 351 350 348 353 352 351
320 320 320 321 322 320 323 323 323 325 324 325 327 335 334 340 345 345 347 348 348 348 347 347 346 346 347 348 350 352 353 353 352 350 351 351 350 349 349 349 349 352 352 351
321 320 321 320 321 321 323 322 320 322 321 324 325 328 329 343 341 341 341 343 345 346 346 346 346 346 347 348 350 352 352 353 352 351 351 352 351 351 351 349 351 353 352 352
321 323 319 320 321 321 321 317 320 319 322 325 322 328 329 332 341 340 340 340 343 342 344 344 344 345 346 348 350 351 350 353 353 353 353 352 352 352 352 350 351 351 352 352
323 323 322 319 321 321 318 319 316 320 322 324 322 326 327 331 334 340 340 339 339 342 341 342 343 343 346 347 349 350 350 351 354 354 353 353 353 352 352 353 351 350 351 352
320 322 320 322 320 321 319 320 319 317 319 319 323 324 325 327 329 336 339 339 340 340 341 342 342 342 344 346 347 350 350 350 353 354 354 354 354 353 353 353 352 351 350 352
316 318 316 320 320 319 320 317 320 311 321 322 320 323 324 326 326 332 339 339 339 339 339 341 341 342 343 345 346 349 351 350 350 352 354 354 354 354 354 353 353 352 350 352
316 315 319 317 317 319 317 320 316 315 315 320 321 322 321 325 326 327 333 339 340 339 339 339 340 341 342 344 345 348 351 351 351 351 353 353 354 354 354 354 353 351 351 352
318 311 318 318 317 319 318 319 315 319 318 315 319 320 321 324 324 324 326 332 335 339 340 338 338 339 342 344 345 348 350 352 351 352 353 353 353 354 354 354 353 351 353 353
319 316 316 316 317 317 318 318 318 317 314 321 320 320 317 321 322 322 328 330 332 335 338 338 338 337 341 344 345 348 350 352 352 353 354 354 354 353 354 354 354 353 353 354
313 313 317 318 317 318 318 320 320 318 319 322 321 319 321 320 320 320 324 327 332 336 338 337 336 336 341 344 346 348 351 352 353 354 355 355 355 355 354 354 354 354 354 354
311 315 316 317 318 319 321 320 321 319 320 321 322 317 318 319 319 320 320 323 332 334 335 336 338 339 340 343 346 349 351 353 353 354 356 356 356 356 356 355 354 354 354 354
309 316 314 317 319 321 322 320 322 321 321 320 320 316 317 319 317 318 318 320 325 331 332 333 338 339 340 342 346 348 351 353 355 355 356 356 357 358 358 357 356 355 354 354
312 313 315 317 317 319 322 322 322 322 321 320 321 319 316 317 317 316 318 320 325 325 328 333 334 335 340 343 346 348 351 352 356 356 357 357 357 359 359 358 358 356 355 355
312 313 314 316 318 326 322 322 323 322 322 320 320 319 319 319 320 319 317 319 321 325 328 333 335 336 340 344 346 347 350 353 356 357 358 359 359 359 359 360 359 358 356 356
311 313 316 318 321 322 324 327 325 322 322 325 320 320 319 319 321 321 320 321 322 324 325 330 337 339 342 344 347 348 349 352 356 357 358 359 360 360 360 360 360 360 359 356
312 313 317 317 323 327 324 329 332 330 325 339 330 323 321 320 321 323 331 331 324 321 322 328 336 340 342 344 347 348 349 352 356 358 358 359 360 360 360 360 360 360 360 357
316 322 321 319 321 324 328 339 334 333 326 339 337 336 326 322 321 325 334 336 338 329 329 330 325 335 341 344 347 348 349 350 353 356 358 359 360 361 360 360 360 361 360 359
321 324 327 321 327 331 335 339 345 341 340 346 345 346 346 345 347 347 348 349 346 345 346 351 350 345 347 335 343 347 348 350 350 353 354 358 359 361 360 360 360 360 360 359
321 323 328 325 328 327 331 334 339 337 340 342 344 344 345 345 343 342 342 340 338 336 333 333 333 337 337 356 349 343 345 348 350 351 352 354 357 359 359 359 360 360 360 358
319 321 326 327 328 332 334 333 334 334 335 335 335 337 337 339 338 337 337 336 334 333 332 330 329 328 327 332 345 349 352 350 346 349 351 353 355 358 359 359 360 360 358 356
315 322 324 329 328 330 334 332 332 332 331 332 333 334 334 333 332 330 330 330 331 331 330 329 328 327 327 330 336 337 339 349 346 347 349 351 354 358 359 358 359 358 354 352
320 325 326 326 330 331 331 329 328 329 330 327 331 332 330 330 329 329 329 329 330 331 332 331 331 329 330 336 342 344 343 338 346 353 356 357 357 341 336 337 337 346 346 347
Wind_Speed
6 6 9 9 6 5 3 3 5 6 3 2 9 8 20 24 18 19 20 20 20 22 22 30 31 32 30 32 35 40 37 38 39 35 34 33 29 27 21 19 18 19 24 22
3 15 8 8 8 8 7 7 12 14 8 8 7 11 23 25 28 27 24 23 23 21 19 25 28 31 34 38 39 39 42 40 42 39 38 31 35 31 29 22 18 20 22 23
10 6 10 9 7 8 6 9 11 10 4 2 4 3 12 21 11 14 19 23 23 23 23 22 26 34 34 35 39 43 46 44 45 40 39 34 32 33 30 29 24 22 23 25
7 10 10 9 8 9 9 7 9 5 3 3 3 4 5 14 20 17 18 20 22 23 21 21 24 30 37 41 43 43 42 43 46 44 37 36 29 25 29 32 30 25 24 25
9 13 16 11 17 8 11 4 8 3 4 0 5 1 7 16 17 18 21 21 22 23 23 23 24 36 40 40 41 43 43 43 45 46 41 39 29 32 29 31 29 25 24 24
12 5 13 11 8 13 4 2 5 3 3 6 16 8 10 8 19 21 20 23 25 24 23 23 33 34 35 36 37 40 42 44 44 48 47 42 35 33 31 30 31 29 26 26
6 20 5 6 8 6 5 7 3 3 4 11 9 6 14 8 18 28 26 27 28 25 24 24 22 24 31 35 37 37 39 39 42 45 45 44 41 38 37 35 31 31 30 29
9 6 15 6 10 11 8 12 6 8 5 8 6 8 7 17 11 21 26 26 23 23 23 25 26 27 36 38 38 38 38 39 40 43 45 44 43 40 40 38 35 32 31 32
9 10 4 15 7 16 8 11 13 1 3 2 5 7 5 8 10 10 17 19 22 22 24 27 26 30 37 37 40 43 42 43 43 45 43 40 41 37 38 40 37 34 33 32
8 3 7 11 8 9 15 9 4 2 11 13 5 7 6 7 12 9 11 13 17 19 21 23 22 26 36 40 43 43 46 47 48 46 44 41 43 42 39 40 39 36 34 33
3 4 7 6 8 15 4 13 4 6 7 9 9 10 8 10 10 11 12 14 17 16 20 22 22 29 35 35 37 40 41 43 43 41 40 38 38 38 38 42 41 39 35 35
6 3 14 17 7 19 19 16 9 7 12 6 7 11 4 16 14 11 11 11 14 21 24 21 23 20 27 32 33 39 42 42 45 43 41 41 42 38 38 43 44 42 38 35
7 4 2 6 4 3 10 12 13 10 4 21 9 7 6 8 8 9 10 9 11 11 15 15 14 13 17 29 34 37 41 44 42 40 41 39 38 39 40 44 43 45 42 40
2 3 4 5 5 4 7 11 20 17 11 17 20 8 5 8 11 10 9 9 10 9 14 14 11 12 15 27 32 35 40 41 40 39 40 39 40 41 42 43 42 41 44 42
4 3 3 5 13 14 15 12 25 20 23 16 18 12 14 10 11 11 11 5 7 9 10 13 14 15 17 23 31 33 35 36 40 40 39 41 38 38 37 39 41 42 40 42
3 4 6 5 9 10 15 20 25 24 23 18 17 8 9 14 9 7 10 10 10 9 9 9 20 20 19 22 34 37 37 37 39 39 41 40 39 38 38 39 38 38 39 39
2 1 5 5 8 11 11 25 20 23 13 17 19 9 8 11 11 12 13 11 11 11 11 14 15 14 18 25 34 35 39 37 39 41 38 37 37 37 38 37 35 37 37 38
3 4 1 5 6 8 10 9 17 18 8 9 5 10 12 15 18 15 12 11 11 10 10 10 12 14 21 30 36 38 33 36 39 39 37 36 39 39 36 35 37 35 35 39
16 5 2 3 3 9 12 4 9 13 14 7 12 10 8 9 1 6 7 7 9 9 10 11 15 17 22 29 32 30 30 33 33 34 35 37 39 38 36 37 37 34 32 33
17 17 5 3 4 6 0 18 21 14 17 9 10 11 10 8 7 12 4 6 10 10 4 6 17 18 20 24 26 29 29 32 33 35 40 41 41 38 38 39 38 37 36 33
6 7 14 11 5 8 9 25 11 5 8 6 8 6 8 7 6 3 2 4 7 5 9 10 10 4 12 24 27 20 23 27 38 38 40 37 37 40 41 36 35 38 37 33
9 10 6 8 8 8 13 10 9 10 15 6 6 4 7 6 6 7 11 11 12 13 13 16 13 15 19 7 9 15 23 39 36 32 29 32 36 36 34 35 33 34 33 31
6 7 8 6 6 2 1 8 13 10 6 8 4 5 6 7 8 7 7 9 9 9 8 12 13 12 20 21 7 11 31 29 31 29 31 33 33 33 34 34 34 31 32 27
6 5 8 3 6 3 9 10 14 13 7 9 7 8 11 13 8 9 9 9 10 10 10 11 11 9 7 14 17 16 16 20 23 25 32 34 34 36 39 37 35 33 29 27
5 6 13 5 5 1 9 8 12 11 9 9 11 10 12 11 8 6 7 8 6 6 6 12 9 8 14 24 23 20 20 27 21 27 25 23 24 34 30 29 29 30 28 31
6 7 7 7 4 2 6 7 11 4 6 9 10 11 11 10 8 7 9 5 4 6 6 6 10 10 14 20 24 27 23 14 21 15 18 23 27 24 27 32 33 27 24 25
Wind_Direction
172 184 208 207 187 198 185 250 254 253 260 94 227 174 179 185 193 186 188 191 196 203 204 203 202 198 194 198 196 200 199 206 207 209 212 211 211 214 212 208 212 212 212 216
158 219 196 198 190 209 221 229 259 295 175 185 204 213 194 183 198 191 187 193 199 206 198 205 203 202 199 196 199 197 201 204 208 207 210 210 216 220 223 222 222 217 215 218
206 226 168 179 191 190 220 209 242 232 359 323 102 337 165 208 213 200 203 199 200 200 198 203 201 200 201 200 198 200 201 203 208 207 209 210 220 224 225 226 225 219 214 219
222 230 188 196 210 183 235 200 251 265 53 247 135 270 202 189 214 204 207 207 204 207 203 200 206 201 197 199 201 203 200 201 208 207 205 205 210 212 222 226 225 223 225 229
223 187 202 209 215 162 243 200 225 185 205 198 231 241 252 173 209 218 210 212 210 208 203 200 201 204 204 197 198 201 200 199 203 207 208 208 207 214 220 222 220 224 228 230
212 217 193 197 197 201 168 281 338 48 149 246 248 170 253 181 203 211 214 213 212 208 207 210 205 203 203 201 198 197 196 200 201 206 208 209 207 207 215 217 224 225 228 233
175 231 201 149 177 193 130 119 265 289 196 241 207 202 229 216 207 204 205 211 211 207 204 209 206 204 201 197 196 195 195 199 200 203 206 209 210 211 215 219 222 227 227 232
182 236 201 169 185 192 192 183 167 200 193 244 172 220 237 214 216 214 212 213 209 205 207 208 208 203 203 197 193 192 194 199 199 202 205 208 210 210 215 219 223 226 229 232
183 236 201 195 181 177 193 194 206 158 206 15 228 274 284 202 238 206 215 219 209 206 207 211 208 205 204 201 193 193 194 199 200 202 203 205 208 207 210 221 224 230 232 234
211 226 213 205 183 216 196 166 190 352 224 244 246 238 226 193 228 237 224 202 209 211 210 212 209 206 206 202 198 194 198 199 201 202 202 203 208 212 214 224 227 228 231 229
276 244 231 154 187 198 195 214 187 162 182 228 248 257 179 204 215 203 223 212 214 213 219 214 209 209 204 199 195 197 200 200 205 204 203 202 206 210 209 221 228 227 227 229
333 275 242 222 219 206 207 211 167 197 225 257 242 235 312 191 204 203 225 211 221 223 222 213 207 198 193 195 193 196 198 200 203 202 202 201 206 205 207 218 226 225 222 221
340 309 268 312 305 310 216 196 196 219 156 233 223 240 228 173 206 217 225 241 249 229 218 209 201 188 190 192 193 195 197 203 202 199 201 201 203 203 206 217 220 224 223 225
41 283 222 261 270 325 208 228 210 205 223 234 233 237 230 225 215 234 213 232 243 219 195 190 169 184 190 194 196 196 201 201 198 199 199 201 202 203 206 212 215 218 221 223
74 270 270 301 294 282 264 259 225 216 220 213 234 211 231 223 203 213 227 209 221 221 201 189 184 185 188 192 197 201 204 199 198 197 199 203 203 206 206 210 212 216 218 220
17 282 350 285 265 291 274 258 252 225 217 227 236 214 205 228 228 233 224 233 210 212 204 228 216 207 194 192 192 195 198 198 195 199 203 200 200 201 204 209 210 210 213 215
279 113 3 286 309 321 278 239 250 243 217 192 219 193 193 238 233 227 234 225 226 227 213 204 204 225 190 193 196 194 195 193 194 201 202 200 199 202 204 205 205 208 205 206
240 140 169 260 315 233 267 315 237 232 214 206 168 199 193 206 231 227 217 204 225 224 223 217 218 201 201 200 195 197 192 191 195 200 201 199 198 202 200 201 206 207 202 203
204 203 217 235 235 292 299 3 341 202 229 206 202 205 205 214 99 272 231 219 219 224 210 209 205 199 205 194 198 194 187 191 196 200 200 201 201 202 198 198 202 205 200 199
196 204 215 186 240 240 103 330 328 316 227 194 182 204 197 142 206 241 215 209 227 230 236 251 197 193 191 216 192 185 191 189 197 201 204 203 204 202 200 200 199 201 203 203
183 179 220 234 252 281 342 334 312 142 247 155 149 160 148 176 204 202 131 27 18 26 4 358 350 304 206 194 186 194 193 201 207 206 207 204 204 202 202 199 196 194 196 195
195 165 188 222 221 253 7 350 356 310 301 299 102 87 106 98 69 53 57 52 43 49 43 42 58 42 31 353 233 215 196 212 211 208 208 208 205 202 198 193 191 191 191 194
251 191 177 213 224 165 30 348 319 299 301 316 357 97 107 97 60 49 62 64 57 59 64 69 89 85 49 42 2 241 231 232 219 204 203 199 201 197 191 185 186 186 187 192
279 179 196 133 242 217 41 352 334 338 353 337 7 64 62 87 64 59 47 41 41 34 34 27 35 34 56 51 49 20 334 292 242 223 211 201 192 190 182 183 185 183 184 186
264 250 217 210 253 118 58 359 323 323 347 18 36 46 75 86 69 74 60 43 36 44 33 36 33 10 355 357 357 353 348 354 278 220 214 199 188 173 167 169 179 185 178 179
242 230 211 222 234 166 90 355 316 15 345 30 51 44 37 63 65 64 60 46 45 34 22 42 45 24 348 349 338 335 326 303 332 218 178 179 169 155 147 136 117 133 140 144